Погода в Черняховске

Погода в Черняховске : погода сейчас, прогноз погоды и архив. Всё, что Вы хотите узнать о погоде в Черняховске!

Хотите узнать прогноз погоды в Черняховске? Тогда Вам сюда: Погода в Черняховске

Поиск расширенной информации на нашем сайте:

Другие новости

Новости СМИ2

Главная страница сайта

Новости сайта

03.07.2017

Напоминаем, что на нашем специализированном сайте Метеоцентр.Азия вы можете получить высокодетализированные автоматические прогнозы погоды по пунктам России, СНГ и мира в авиационном формате (включающие направление и скорость ветра, видимость, явления погоды, количество и форму облачности, нижнюю и верхнюю границу облачности).


Погода в Черняховске - сегодня

Время (UTC), дата Ветер
(°,м/с) 
Видим.   Явления Облачность Т
(°С)
Тd
(°С)
f(%) Тe
(°С)
Pmin
(гПа)
dP
(гПа)
Po
(мм)
O2
(г/м3)
Тmin Tmax R s Состояние
почвы
18 18.01.18 140 (ЮВ) 3-7{08}  10 км    9/9 600 м 
[Cu Sc]
+0.7 -1.5 85 -1  995.9  -1.2  744  299    +2.7  0.4     
21 18.01.18 100 (В) 3-7{08}  н/о    н/о 
-0.4 -2.5 86 -2  993.3  -2.6  742  300           
00 19.01.18 090 (В) 3-8{08}  н/о    н/о 
-0.1 -2.7 83 -2  991.7  -1.6  741  299           
03 19.01.18 080 (В) 4-9{09}  н/о    н/о 
-1.4 -2.3 94 -4  992.1  0.4  741  300  -1.4         
06 19.01.18 040 (СВ) 3-6{09}  1000 м  ливневой снег  10/10 300 м кучево-дожд. 
[Cb cap]
-1.8 -2.2 97 -4  993.9  1.8  743  301  -1.8    11  равномерный
сухой снег
100% 
09 19.01.18 030 (СВ) 3-5{06}  н/о    н/о 
-1.5 -2.1 96 -3  997  3.1  745  302           
12 19.01.18 360 (С) 4-6{06}  н/о    н/о 
-1.6 -2 97 -4  999.7  2.6  747  303           
15 19.01.18 320 (СЗ) 3-4{06}  н/о    н/о 
-2 -2.4 97 -4  1002.5  2.8  749  304           
18 19.01.18 290 (З) 2-3{05}  4000 м  в посл. час снег  10/10 300 м 
[Sc]
-3.8 -4.1 98 -5  1004.5  750  307    -1.3     
21 19.01.18 280 (З) 1-2{03}  н/о    н/о 
-3.7 -3.9 99 -3  1006.4  1.9  752  308           
00 20.01.18 010 (С) 1-1{03}  н/о    н/о 
-4.5 -4.9 97 -4  1007.6  1.2  753  309           
03 20.01.18 220 (ЮЗ) 1-1{03}  н/о    н/о 
-8.9 -9.6 95 -9  1008.7  0.9  753  315  -8.9         
06 20.01.18 160 (Ю) 1-1{02}  4000 м  дымка  9/0 средняя 
[Ac trans]
-9.3 -10 95 -9  1009  0.3  754  315  -10.1      14  равномерный
сухой снег
100% 
09 20.01.18 160 (Ю) 1-2{02}  н/о    н/о 
-6.1 -6.6 96 -6  1009.9  754  312           
12 20.01.18 150 (ЮВ) 1-2{02}  н/о    н/о 
-1.9 -3.6 88 -1  1009  -0.9  754  306           
15 20.01.18 120 (ЮВ) 1-2{03}  н/о    н/о 
-3 -4.6 89 -3  1008.7  -0.3  754  308           
18 20.01.18 110 (В) 1-2{04}  4000 м  в посл. час снег  9/0 средняя 
[Ac As]
-3.3 -4.5 91 -3  1008.6  0.1  753  308    -1.7  0.0     
21 20.01.18 070 (В) 1-2{02}  н/о    н/о 
-4.6 -5.6 93 -4  1008.5  0.1  753  309           
00 21.01.18 100 (В) 1-3{04}  н/о    н/о 
-5.9 -6.7 94 -6  1008.9  0.4  754  311           
03 21.01.18 080 (В) 1-2{03}  н/о    н/о 
-7.2 -8.1 93 -7  1009.8  0.9  754  313  -7.4         
06 21.01.18 050 (СВ) 1-2{03}  4000 м  дымка  9/0 средняя 
[Ac trans]
-7.9 -8.6 95 -8  1011.2  1.4  755  314  -8.1      13  равномерный
сухой снег
100% 
09 21.01.18 110 (В) 2-3{04}  н/о    н/о 
-4.8 -5.3 96 -6  1013.3  2.1  757  311           
12 21.01.18 120 (ЮВ) 1-3{05}  н/о    н/о 
-2.9 -4.6 88 -2  1014.7  1.5  758  309           
15 21.01.18 360 (С) 1-1{03}  н/о    н/о 
-3.7 -5.2 89 -3  1016.9  2.1  760  311           
18 21.01.18 тихо () -0{02}  4000 м  дымка  10/0 средняя 
[Ac As]
-4.4 -5.3 93 -4  1018.4  1.5  761  312    -2.8       
Время (UTC), дата Ветер
(°,м/с) 
Видим.   Явления Облачность Т
(°С)
Тd
(°С)
f(%) Тe
(°С)
Pmin
(гПа)
dP
(гПа)
Po
(мм)
O2
(г/м3)
Тmin Tmax R s Состояние
почвы

Для получения пояснительной информации подведите курсор к названию столбца.

ПОГОДА в Черняховске - архив

Всё, что Вы хотите узнать о погоде в Черняховске - удобно и подробно!

Выберите нужную дату (начиная с 1 января 2015* года) и нажмите кнопку "Найти".
Будут отображены архивные сводки погоды по пункту Черняховск, начиная с указанной даты.


Отображать данные в формате CSV (для использования в таблицах Excel)


Внимание! Наш архив погоды предназначен исключительно для личного некоммерческого использования в познавательных целях. Если Вам необходимы официальные справки о состоянии погоды (для производственных, юридических, коммерческих и т.п. целей), обращайтесь в органы Росгидромета.

*Примечание: данная дата относится к архиву по метеостанциям СССР (Россия, СНГ, Балтия).
Архив по метеостанциям Зарубежной Европы и Азии (кроме Китая) хранится 10 дней, по другим регионам земного шара (Китай, Африка, Америка, Австралия, Океания) - 1 день.

Черняховск - район местоположения метеостанции


Название, широта, долгота, высота метеостанции:
Черняховск 54.8°ш. 21.7°д. 25 м над ур. моря [Российская Федерация]

Дополнительная информация

В oтличие oт бoльшинства пoгoдных сайтoв мы публикуем пoдрoбную метеoинфoрмацию в детальнoм прoфессиoнальнoм фoрмате.

Характеристики температуры и влажнoсти вoздуха измеряются на высoте 2 м в тени вдали oт зданий и деревьев.
Скoрoсть ветра измеряется на высoте 10 м (на урoвне рoста челoвека скoрoсть ветра ниже в 1.5-2 раза). Если метеoстанция нахoдится в гoрoде или в лесу, тo скoрoсть ветра занижена на 2-4 м/с пo сравнению с oткрытым местoм. Скoрoсть ветра над акватoриями крупных рек и oзёр, а также на вершинах хoлмoв на 2-5 м/с выше, чем в oбычных услoвиях.
Атмoсфернoе давление в разных тoчках местнoсти мoжет значительнo oтличаться oт давления на метеoстанции, в зависимoсти oт услoвий рельефа (при пoдъёме на 10 м давление пoнижается примернo на 1 мм рт.ст.).